Yatton Keynell, United Kingdom

2:00 AM BST on April 25, 2019 (GMT +0100)
Yatton Keynell

Weather History for 03740 - August, 2002

Change the Weather History Date:

Friday, August 2, 2002

  Actual Average Record
Temperature  
Mean Temperature 60 °F -  
Max Temperature 69 °F 68 °F - ()
Min Temperature 51 °F 53 °F - ()
Degree Days  
Heating Degree Days 5    
Growing Degree Days 10 (Base 50)    
Moisture  
Dew Point 50 °F    
Average Humidity 67    
Maximum Humidity 88    
Minimum Humidity 46    
Precipitation  
Precipitation 0.00 in 0.08 in - ()
Sea Level Pressure  
Sea Level Pressure 29.83 in    
Wind  
Wind Speed 4 mph ()    
Max Wind Speed 9 mph    
Max Gust Speed -    
Visibility 6.2 miles    
Events      
T = Trace of Precipitation, MM = Missing Value Source: Averaged Metar Reports

Daily Weather History Graph

Daily Weather History Graph

Search for Another Location

Airport or City:

Astronomy

Aug. 02, 2002 Rise Set
Actual Time 5:32 AM BST 8:54 PM BST
Civil Twilight 4:52 AM BST 9:34 PM BST
Nautical Twilight 3:58 AM BST 10:28 PM BST
Astronomical Twilight 2:42 AM BST 11:41 PM BST
Moon 12:09 AM BST (8/2) 3:15 PM BST (8/2)
Length of Visible Light 16h 42m
Length of Day
15h 21m
Last Quarter, 40% of the Moon is Illuminated
Aug 2
Last Quarter
Aug 8
New
Aug 15
First Quarter
Aug 22
Full
Aug 31
Last Quarter

Hourly Weather History & Observations

Time (BST) Temp. Dew Point Humidity Pressure Visibility Wind Dir Wind Speed Gust Speed Precip Events Conditions
12:50 AM 53.6 °F 50.0 °F 88% 29.86 in - SE 1.2 mph - N/A   Clear
1:50 AM 53.6 °F 46.4 °F 77% 29.86 in - NNE 2.3 mph - N/A   Clear
2:50 AM 53.6 °F 48.2 °F 82% 29.86 in - ENE 2.3 mph - N/A   Clear
3:50 AM 51.8 °F 48.2 °F 88% 29.83 in - East 3.5 mph - N/A   Clear
4:50 AM 51.8 °F 46.4 °F 82% 29.83 in - East 3.5 mph - N/A   Clear
5:50 AM 51.8 °F 46.4 °F 82% 29.83 in - NNE 3.5 mph - N/A   Clear
6:50 AM 55.4 °F 46.4 °F 72% 29.83 in - NNE 3.5 mph - N/A   Clear
7:50 AM 59.0 °F 48.2 °F 67% 29.83 in - NE 3.5 mph - N/A   Clear
8:50 AM 62.6 °F 51.8 °F 68% 29.83 in 6.2 mi ESE 5.8 mph - N/A   Partly Cloudy
9:50 AM 64.4 °F 53.6 °F 68% 29.83 in 6.2 mi East 4.6 mph - N/A   Partly Cloudy
10:50 AM 66.2 °F 51.8 °F 60% 29.83 in 6.2 mi East 6.9 mph - N/A   Scattered Clouds
11:50 AM 68.0 °F 51.8 °F 56% 29.83 in 6.2 mi ESE 5.8 mph - N/A   Scattered Clouds
12:50 PM 68.0 °F 51.8 °F 56% 29.83 in 6.2 mi East 8.1 mph - N/A   Scattered Clouds
1:50 PM 68.0 °F 50.0 °F 52% 29.83 in 6.2 mi ESE 5.8 mph - N/A   Scattered Clouds
2:50 PM 69.8 °F 50.0 °F 49% 29.83 in 6.2 mi East 9.2 mph - N/A   Partly Cloudy
3:50 PM 69.8 °F 48.2 °F 46% 29.80 in 6.2 mi East 5.8 mph - N/A   Scattered Clouds
4:50 PM 69.8 °F 50.0 °F 49% 29.80 in 6.2 mi East 6.9 mph - N/A   Partly Cloudy
5:50 PM 68.0 °F 50.0 °F 52% 29.80 in 6.2 mi ESE 9.2 mph - N/A   Partly Cloudy
6:50 PM 68.0 °F 51.8 °F 56% 29.80 in 6.2 mi SSE 6.9 mph - N/A   Partly Cloudy
7:50 PM 64.4 °F 51.8 °F 64% 29.83 in 6.2 mi SSE 8.1 mph - N/A   Partly Cloudy
8:50 PM 62.6 °F 51.8 °F 68% 29.83 in 6.2 mi SSE 4.6 mph - N/A   Partly Cloudy
9:50 PM 62.6 °F 53.6 °F 72% 29.86 in - South 3.5 mph - N/A   Clear
10:50 PM 60.8 °F 53.6 °F 77% 29.86 in - South 3.5 mph - N/A   Clear
11:50 PM 59.0 °F 53.6 °F 82% 29.86 in 6.2 mi SSE 1.2 mph - N/A   Partly Cloudy